Location: Arbon
(43.0005°N, 0.7472°E)
Time: 12:11:18
(UTC+00:00)

Terra - Pass Details

Date: 22 April 2026
Orbit: 688 x 691 km, 97.9° (Epoch: 16 May)

Event Time Altitude Azimuth Distance (km) Brightness Sun altitude
Exits shadow 21:10:48 14° 213° (SSW) 1,874 3.9 -23.0°
Maximum altitude 21:13:57 27° 265° (W) 1,308 3.5 -23.4°
Drops below altitude 10° 21:17:57 10° 324° (NW) 2,147 5.4 -23.9°
Sets 21:20:31 0° 336° (NNW) 3,068 6.3 -24.2°
